User: anonymous   Login
Location: Unspecified
(0.0000°N, 0.0000°E)
Time: 01:07:41
(UTC+00:00)
Language:

EXO-O - Orbit

View from above orbital plane
View from above orbital plane
View from above satellite
View from above satellite

Ground track
Ground track

The orbit is defined by the following mean orbital elements,

1 59175U          26144.65950470 +.00000000 +00000-0 +22702-3 0 00009
2 59175  97.3819 224.8041 0007661 248.4092 111.6335 15.34219042    07
Epoch (UTC): 24 May 2026 15:49:41
Eccentricity: 0.0007661
inclination: 97.3819°
perigee height: 458 km
apogee height: 468 km
right ascension of ascending node: 224.8041°
argument of perigee: 248.4092°
revolutions per day: 15.34219042
mean anomaly at epoch: 111.6335°

The dashed part of the orbit path shows where the satellite is in the earth's shadow,  

DLR